FW8543 Weather Reports


time (UTC)temp
F
wind
direction
speed
knots
gust
knots
rain 1hr
in
rain 24hr
in
rain mn
in
humidity
%
barometer
mb
20260507151021 72 223 4.3 11.3 0.00 1.83 1.61 90 1012.1
20260507150526 72 226 4.3 11.3 0.00 1.83 1.61 90 1012.1
20260507150039 72 173 3.5 10.4 0.00 1.83 1.61 90 1012.1
20260507145522 71 207 4.3 10.4 0.00 1.83 1.61 90 1012.3
20260507145021 71 223 4.3 12.2 0.00 1.83 1.61 90 1012.3
20260507144600 71 169 4.3 12.2 0.00 1.83 1.61 90 1012.1
20260507144023 71 219 4.3 12.2 0.00 1.83 1.61 90 1012.1
20260507143522 71 237 4.3 11.3 0.00 1.83 1.61 91 1012.0
20260507143049 71 266 5.2 11.3 0.00 1.83 1.61 91 1011.6
20260507142534 71 185 4.3 10.4 0.00 1.83 1.61 91 1011.7
20260507142026 71 211 4.3 9.6 0.00 1.83 1.61 92 1011.8
20260507141540 71 209 3.5 11.3 0.00 1.83 1.61 92 1011.8
20260507141022 71 190 4.3 11.3 0.00 1.83 1.61 92 1011.6
20260507140522 70 232 4.3 9.6 0.00 1.83 1.61 93 1011.6
20260507140041 70 150 4.3 10.4 0.00 1.83 1.61 93 1011.7
20260507135522 70 181 3.5 10.4 0.00 1.83 1.61 93 1011.7
20260507135023 70 153 4.3 12.2 0.00 1.83 1.61 94 1011.5
20260507134544 70 248 4.3 12.2 0.00 1.83 1.61 94 1011.2
20260507134023 70 167 3.5 12.2 0.00 1.83 1.61 94 1011.1
20260507133522 69 182 4.3 12.2 0.00 1.83 1.61 94 1011.3
20260507133039 69 174 3.5 12.2 0.00 1.83 1.61 95 1011.4
20260507132521 69 189 4.3 12.2 0.00 1.83 1.61 95 1011.7
20260507132022 69 196 4.3 7.8 0.00 1.83 1.61 95 1011.7
20260507131535 69 135 2.6 7.8 0.00 1.83 1.61 95 1011.7
20260507131022 69 194 2.6 7.0 0.00 1.83 1.61 95 1011.7
20260507130523 69 245 3.5 8.7 0.00 1.83 1.61 95 1011.6
20260507130035 69 174 2.6 8.7 0.00 1.83 1.61 95 1011.2
20260507125522 68 180 3.5 7.8 0.00 1.83 1.61 95 1011.1
20260507125022 68 192 3.5 10.4 0.00 1.83 1.61 95 1011.3
20260507124537 68 210 1.7 10.4 0.00 1.83 1.61 95 1011.2
20260507124024 68 171 2.6 10.4 0.00 1.83 1.61 95 1011.4
20260507123522 68 161 0.9 4.3 0.00 1.83 1.61 95 1011.5
20260507123036 68 203 1.7 5.2 0.00 1.83 1.61 95 1011.6
20260507122522 68 185 2.6 5.2 0.00 1.83 1.61 95 1011.7
20260507122022 68 213 1.7 5.2 0.00 1.83 1.61 95 1011.6
20260507121540 67 160 2.6 7.0 0.00 1.83 1.61 95 1011.7
20260507121022 67 202 2.6 7.0 0.00 1.83 1.61 95 1011.8
20260507120522 67 170 2.6 6.1 0.00 1.83 1.61 95 1011.9
20260507120039 67 214 0.9 4.3 0.00 1.83 1.61 95 1012.0
20260507115522 67 181 0.9 2.6 0.00 1.83 1.61 95 1012.1
20260507115022 67 0 0.9 1.7 0.00 1.83 1.61 95 1012.4
20260507114538 67 0 0.0 1.7 0.00 1.83 1.61 95 1012.4
20260507114021 67 165 0.0 1.7 0.00 1.83 1.61 95 1012.6
20260507113524 67 0 0.0 0.0 0.01 1.83 1.61 95 1012.4
20260507113038 67 0 0.0 0.9 0.01 1.83 1.61 95 1012.3
20260507112525 67 0 0.0 1.7 0.01 1.83 1.61 95 1012.2
20260507112023 67 0 0.0 1.7 0.01 1.83 1.61 94 1011.9
20260507111543 67 5 0.0 1.7 0.01 1.83 1.61 94 1012.0
20260507111026 67 0 0.0 2.6 0.01 1.83 1.61 94 1012.0
20260507110525 67 0 0.0 2.6 0.01 1.83 1.61 94 1011.6
20260507110044 67 23 0.0 2.6 0.01 1.83 1.61 94 1011.1
20260507105525 67 264 0.0 2.6 0.01 1.83 1.61 94 1011.9
20260507105026 67 0 0.9 2.6 0.01 1.83 1.61 94 1012.2
20260507104539 67 264 0.0 2.6 0.01 1.83 1.61 94 1012.1
20260507104025 67 0 0.0 2.6 0.01 1.83 1.61 94 1011.9
20260507103527 67 0 0.0 3.5 0.00 1.82 1.60 94 1012.0
20260507103041 67 237 0.9 4.3 0.00 1.82 1.60 94 1012.1
20260507102525 67 200 0.9 4.3 0.00 1.82 1.60 94 1011.9
20260507102028 67 217 0.9 4.3 0.00 1.82 1.60 94 1011.9
20260507101546 67 174 0.9 4.3 0.00 1.82 1.60 94 1011.6
20260507101026 67 202 0.9 4.3 0.00 1.82 1.60 94 1011.4
20260507100527 67 212 0.0 2.6 0.00 1.82 1.60 94 1011.1
20260507100042 67 0 0.0 3.5 0.00 1.82 1.60 94 1010.8
20260507095526 67 355 0.0 5.2 0.01 1.82 1.60 94 1011.3
20260507095028 67 0 0.9 5.2 0.01 1.82 1.60 94 1011.9
20260507094544 67 239 0.9 4.3 0.02 1.82 1.60 94 1011.7
20260507094026 67 201 0.9 4.3 0.02 1.82 1.60 94 1012.0
20260507093527 67 202 0.9 4.3 0.02 1.82 1.60 94 1012.4
20260507093045 67 214 0.9 2.6 0.02 1.82 1.60 94 1012.4
20260507092526 67 0 0.0 2.6 0.02 1.82 1.60 94 1012.4
20260507092026 67 260 0.0 2.6 0.02 1.82 1.60 94 1013.0
20260507091541 67 0 0.9 2.6 0.02 1.82 1.60 94 1012.8
20260507091027 67 0 0.9 4.3 0.02 1.82 1.60 94 1012.9
20260507090530 67 0 0.0 4.3 0.02 1.82 1.60 94 1013.1
20260507090038 67 0 0.9 4.3 0.01 1.81 1.59 94 1013.1
20260507085525 67 181 0.9 8.7 0.02 1.81 1.59 94 1013.0
20260507085026 67 238 1.7 8.7 0.03 1.81 1.59 94 1012.9
20260507084539 67 266 0.9 7.0 0.04 1.80 1.58 94 1012.9
20260507084025 67 187 1.7 7.0 0.05 1.80 1.58 94 1013.0
20260507083529 67 221 2.6 7.8 0.06 1.80 1.58 94 1013.1
20260507083039 67 220 1.7 7.8 0.08 1.80 1.58 94 1012.5
20260507082527 67 166 0.9 4.3 0.19 1.80 1.58 94 1012.5
20260507082025 67 217 1.7 5.2 0.31 1.80 1.58 94 1012.3
20260507081539 67 207 1.7 5.2 0.34 1.80 1.58 94 1012.5
20260507081025 67 192 0.0 4.3 0.41 1.80 1.58 94 1012.4
20260507080521 67 193 0.9 4.3 0.51 1.80 1.58 94 1012.4
20260507080044 67 0 0.9 3.5 0.75 1.80 1.58 94 1012.3
20260507075522 67 345 0.9 3.5 0.87 1.79 1.57 93 1012.1
20260507075024 67 224 0.9 3.5 1.07 1.78 1.56 93 1012.9
20260507074540 67 348 0.9 3.5 1.20 1.76 1.54 93 1013.1
20260507074021 67 0 0.0 2.6 1.21 1.75 1.53 93 1013.1
20260507073522 67 0 0.0 6.1 1.22 1.74 1.52 93 1013.6
20260507073039 67 314 0.9 6.1 1.20 1.71 1.49 93 1014.6
20260507072522 67 162 2.6 5.2 1.07 1.58 1.36 93 1015.9
20260507072022 67 287 0.9 3.5 0.99 1.49 1.27 93 1015.2
20260507071539 67 5 0.9 2.6 0.96 1.45 1.23 93 1014.4
20260507071021 67 0 0.0 5.2 0.89 1.37 1.15 92 1013.8
20260507070528 67 0 0.0 7.8 0.79 1.27 1.04 92 1013.6
20260507070038 67 11 3.5 10.4 0.55 1.02 0.80 92 1014.1
20260507065525 67 355 5.2 13.0 0.44 0.90 0.68 92 1014.1
20260507065024 68 346 6.1 14.8 0.21 0.67 0.45 92 1014.2
20260507064538 68 346 7.8 14.8 0.11 0.56 0.34 92 1013.8
20260507064022 68 45 7.0 13.9 0.08 0.52 0.31 92 1012.9
20260507063524 68 11 5.2 8.7 0.07 0.51 0.29 92 1013.2
20260507063044 68 343 2.6 7.0 0.08 0.51 0.29 92 1012.8
20260507062522 68 355 1.7 3.5 0.07 0.50 0.28 92 1012.7
20260507062022 68 355 0.9 2.6 0.08 0.50 0.28 92 1012.9
20260507061541 68 101 0.0 2.6 0.08 0.49 0.27 92 1012.3
20260507061025 68 0 0.0 2.6 0.08 0.48 0.26 92 1012.7
20260507060523 68 0 0.0 1.7 0.10 0.48 0.26 92 1013.0
20260507060050 68 0 0.0 2.6 0.13 0.47 0.25 92 1012.8
20260507055525 68 0 0.0 3.5 0.15 0.46 0.24 92 1013.1
20260507055021 68 206 1.7 3.5 0.14 0.45 0.23 92 1013.3
20260507054546 69 0 0.0 1.7 0.14 0.45 0.23 92 1013.0
20260507054022 69 0 0.0 3.5 0.13 0.44 0.22 91 1013.1
20260507053522 69 0 0.9 3.5 0.14 0.44 0.22 91 1013.8
20260507053041 69 355 0.9 2.6 0.13 0.43 0.21 91 1014.1
20260507052524 69 0 0.0 2.6 0.14 0.43 0.21 91 1014.1
20260507052022 69 12 0.9 7.0 0.15 0.42 0.20 91 1014.4
20260507051538 69 0 0.9 8.7 0.16 0.41 0.19 91 1014.3
20260507051020 69 360 2.6 8.7 0.17 0.40 0.18 91 1014.9
20260507050523 69 329 5.2 8.7 0.15 0.38 0.16 91 1015.2
20260507050043 69 336 0.9 6.1 0.11 0.33 0.11 91 1015.5
20260507045524 69 329 1.7 6.1 0.10 0.31 0.09 91 1014.9
20260507045024 69 302 1.7 3.5 0.10 0.31 0.09 91 1015.0
20260507044553 69 0 0.0 2.6 0.12 0.31 0.09 91 1014.4
20260507044021 69 202 0.9 2.6 0.13 0.30 0.08 90 1014.2
20260507043521 69 195 0.0 4.3 0.15 0.30 0.08 90 1014.0
20260507043038 69 9 0.0 6.1 0.16 0.30 0.08 90 1014.0
20260507042522 70 206 0.0 7.0 0.16 0.28 0.06 90 1014.6
20260507042021 70 170 3.5 7.0 0.17 0.27 0.05 90 1015.5
20260507041538 70 156 1.7 4.3 0.15 0.24 0.02 90 1015.3
20260507041021 70 163 0.0 1.7 0.15 0.23 0.01 90 1015.2
20260507040522 70 0 0.0 2.6 0.16 0.23 0.01 89 1015.0
20260507040039 70 0 0.9 2.6 0.16 0.22 0.00 89 1015.0
20260507035522 70 0 0.0 1.7 0.16 0.21 0.21 88 1014.5
20260507035024 70 180 0.0 4.3 0.16 0.20 0.20 88 1015.3
20260507034541 70 264 0.0 4.3 0.15 0.19 0.19 88 1015.2
20260507034024 70 325 0.9 4.3 0.12 0.16 0.16 88 1015.4
20260507033524 70 0 0.0 3.5 0.12 0.15 0.15 88 1015.4
20260507033043 70 0 0.9 2.6 0.10 0.13 0.13 87 1015.6
20260507032523 70 193 0.0 1.7 0.10 0.12 0.12 87 1015.4
20260507032025 70 0 0.0 1.7 0.08 0.10 0.10 87 1015.2
20260507031539 71 0 0.0 2.6 0.07 0.09 0.09 86 1014.9
20260507031022 71 0 0.0 2.6 0.06 0.08 0.08 86 1015.1
20260507030527 71 0 0.0 2.6 0.05 0.07 0.07 86 1015.0
20260507030038 71 0 0.0 2.6 0.04 0.06 0.06 85 1014.9
20260507025521 71 327 0.0 1.7 0.03 0.05 0.05 85 1014.4
20260507025021 72 337 0.0 1.7 0.02 0.04 0.04 84 1014.3
20260507024542 72 0 0.0 1.7 0.03 0.04 0.04 85 1014.1
20260507024021 72 0 0.0 1.7 0.03 0.04 0.04 84 1013.8
20260507023525 72 0 0.0 0.9 0.02 0.03 0.03 83 1013.6
20260507023038 72 0 0.0 0.9 0.01 0.02 0.02 84 1013.6
20260507022527 72 0 0.0 1.7 0.01 0.02 0.02 82 1013.3
20260507022026 72 0 0.0 1.7 0.01 0.02 0.02 82 1013.3
20260507021543 73 0 0.0 1.7 0.01 0.02 0.02 81 1013.2
20260507021024 73 0 0.0 0.9 0.02 0.02 0.02 80 1013.4
20260507020524 73 0 0.0 1.7 0.02 0.02 0.02 80 1013.2
20260507020047 73 0 0.0 1.7 0.02 0.02 0.02 79 1013.3
20260507015527 73 0 0.0 1.7 0.02 0.02 0.02 79 1013.4
20260507015024 73 0 0.0 1.7 0.02 0.02 0.02 81 1013.7
20260507014538 73 0 0.0 2.6 0.01 0.01 0.01 81 1013.7
20260507014027 73 0 0.0 3.5 0.01 0.01 0.01 80 1013.3
20260507013524 73 0 0.9 3.5 0.01 0.01 0.01 80 1013.3
20260507013045 74 158 0.9 2.6 0.01 0.01 0.01 78 1013.0
20260507012521 75 115 0.0 1.7 0.01 0.01 0.01 75 1013.1
20260507012025 76 0 0.0 2.6 0.01 0.01 0.01 74 1013.1
20260507011541 76 0 0.0 2.6 0.01 0.01 0.01 72 1012.9
20260507011021 76 0 0.0 2.6 0.00 0.00 0.00 71 1013.2
20260507010521 77 0 0.0 2.6 0.00 0.00 0.00 71 1013.7
20260507010043 77 0 0.0 2.6 0.00 0.00 0.00 70 1013.9
20260507005522 78 0 0.9 3.5 0.00 0.00 0.00 69 1014.0
20260507005025 78 0 0.9 3.5 0.00 0.00 0.00 68 1013.7
20260507004536 79 169 0.0 4.3 0.00 0.00 0.00 66 1013.5
20260507004023 79 174 1.7 5.2 0.00 0.00 0.00 66 1013.4
20260507003524 79 166 1.7 5.2 0.00 0.00 0.00 65 1013.4
20260507003042 79 173 1.7 7.0 0.00 0.00 0.00 65 1013.6
20260507002521 79 170 2.6 7.0 0.00 0.00 0.00 65 1013.6
20260507002024 79 164 2.6 7.0 0.00 0.00 0.00 65 1013.5
20260507001542 79 179 0.9 3.5 0.00 0.00 0.00 66 1013.3
20260507001023 79 0 0.9 6.1 0.00 0.00 0.00 65 1013.3
20260507000524 79 167 1.7 6.1 0.00 0.00 0.00 65 1013.4
20260507000040 79 190 1.7 5.2 0.00 0.00 0.00 65 1013.2
20260506235524 79 0 0.9 4.3 0.00 0.00 0.00 65 1013.2
20260506235023 79 181 0.9 4.3 0.00 0.00 0.00 65 1013.3
20260506234541 80 184 0.0 5.2 0.00 0.00 0.00 65 1013.3
20260506234024 80 212 0.9 5.2 0.00 0.00 0.00 64 1013.2
20260506233524 80 162 2.6 6.1 0.00 0.00 0.00 64 1013.3
20260506233038 80 192 2.6 7.0 0.00 0.00 0.00 64 1013.1
20260506232523 80 165 2.6 7.0 0.00 0.00 0.00 64 1013.1
20260506232023 81 154 1.7 6.1 0.00 0.00 0.00 63 1013.0
20260506231540 81 171 2.6 6.1 0.00 0.00 0.00 63 1013.3
20260506231023 81 164 1.7 7.8 0.00 0.00 0.00 62 1013.7
20260506230524 81 184 1.7 7.8 0.00 0.00 0.00 62 1013.8
20260506230043 81 0 1.7 5.2 0.00 0.00 0.00 61 1013.7
20260506225559 81 0 0.9 4.3 0.00 0.00 0.00 61 1013.8
20260506225024 81 207 1.7 8.7 0.00 0.00 0.00 61 1013.7
20260506224554 82 225 1.7 8.7 0.00 0.00 0.00 61 1013.8
20260506224024 82 222 3.5 7.8 0.00 0.00 0.00 61 1013.5
20260506223523 82 204 1.7 7.8 0.00 0.00 0.00 62 1013.5
20260506223038 82 173 2.6 7.0 0.00 0.00 0.00 61 1013.6
20260506222526 82 188 2.6 7.8 0.00 0.00 0.00 60 1013.5
20260506222024 82 178 3.5 7.8 0.00 0.00 0.00 60 1013.3
20260506221539 83 203 2.6 6.1 0.00 0.00 0.00 60 1013.1
20260506221021 83 182 2.6 9.6 0.00 0.00 0.00 61 1013.2
20260506220521 83 188 3.5 9.6 0.00 0.00 0.00 60 1013.3
20260506220039 83 259 2.6 7.8 0.00 0.00 0.00 60 1013.4
20260506215523 83 165 1.7 7.8 0.00 0.00 0.00 59 1013.2
20260506215023 83 204 1.7 7.8 0.00 0.00 0.00 59 1013.5
20260506214542 83 167 2.6 8.7 0.00 0.00 0.00 59 1013.4
20260506214022 84 208 3.5 8.7 0.00 0.00 0.00 58 1013.4
20260506213523 84 167 2.6 7.0 0.00 0.00 0.00 57 1013.5
20260506213044 84 178 2.6 7.8 0.00 0.00 0.00 57 1013.5
20260506212523 85 167 2.6 7.8 0.00 0.00 0.00 56 1013.6
20260506212023 86 234 2.6 7.8 0.00 0.00 0.00 57 1013.6
20260506211539 86 35 2.6 8.7 0.00 0.00 0.00 54 1013.7
20260506211024 86 215 2.6 8.7 0.00 0.00 0.00 55 1013.9
20260506210524 86 182 2.6 7.8 0.00 0.00 0.00 53 1013.9
20260506210040 86 201 2.6 8.7 0.00 0.00 0.00 55 1013.9
20260506205523 86 187 4.3 8.7 0.00 0.00 0.00 53 1014.1
20260506205024 86 198 3.5 8.7 0.00 0.00 0.00 54 1014.2
20260506204538 85 291 2.6 13.0 0.00 0.00 0.00 57 1014.4
20260506204021 85 319 3.5 13.0 0.00 0.00 0.00 56 1014.3
20260506203523 84 165 3.5 9.6 0.00 0.00 0.00 56 1014.3
20260506203040 84 211 3.5 11.3 0.00 0.00 0.00 56 1014.4
20260506202523 85 195 4.3 11.3 0.00 0.00 0.00 54 1014.5
20260506202024 86 223 3.5 8.7 0.00 0.00 0.00 54 1014.6
20260506201538 85 300 2.6 8.7 0.00 0.00 0.00 54 1014.7
20260506201025 85 196 3.5 8.7 0.00 0.00 0.00 53 1014.8
20260506200523 85 199 2.6 7.0 0.00 0.00 0.00 54 1015.0
20260506200037 84 207 3.5 11.3 0.00 0.00 0.00 52 1015.1
20260506195523 85 208 5.2 11.3 0.00 0.00 0.00 51 1015.2
20260506195027 85 194 4.3 9.6 0.00 0.00 0.00 51 1015.2
20260506194543 85 186 2.6 9.6 0.00 0.00 0.00 50 1015.2
20260506194022 86 177 2.6 8.7 0.00 0.00 0.00 50 1015.3
20260506193523 86 0 2.6 8.7 0.00 0.00 0.00 51 1015.4
20260506193039 86 200 2.6 12.2 0.00 0.00 0.00 49 1015.4
20260506192524 87 225 5.2 12.2 0.00 0.00 0.00 48 1015.3
20260506192023 86 325 2.6 8.7 0.00 0.00 0.00 49 1015.3
20260506191539 86 156 2.6 8.7 0.00 0.00 0.00 48 1015.3
20260506191023 86 258 2.6 8.7 0.00 0.00 0.00 51 1015.3
20260506190527 86 230 1.7 9.6 0.00 0.00 0.00 51 1015.4
20260506190039 86 157 3.5 12.2 0.00 0.00 0.00 51 1015.3
20260506185522 86 211 5.2 12.2 0.00 0.00 0.00 51 1015.4
20260506185023 86 182 2.6 8.7 0.00 0.00 0.00 50 1015.4
20260506184537 85 242 3.5 9.6 0.00 0.00 0.00 49 1015.5
20260506184023 85 200 1.7 9.6 0.00 0.00 0.00 49 1015.6
20260506183524 85 148 3.5 8.7 0.00 0.00 0.00 51 1015.6
20260506183039 85 193 3.5 10.4 0.00 0.00 0.00 47 1015.7
20260506182522 85 269 3.5 10.4 0.00 0.00 0.00 50 1015.8
20260506182022 85 169 2.6 7.8 0.00 0.00 0.00 50 1015.7
20260506181544 85 201 1.7 9.6 0.00 0.00 0.00 49 1015.8
20260506181023 84 269 3.5 9.6 0.00 0.00 0.00 51 1015.8
20260506180525 84 220 2.6 10.4 0.00 0.00 0.00 49 1015.8
20260506180043 84 271 2.6 10.4 0.00 0.00 0.00 46 1015.7
20260506175523 84 156 3.5 8.7 0.00 0.00 0.00 56 1015.8
20260506175022 83 299 2.6 13.9 0.00 0.00 0.00 54 1015.8
20260506174536 83 177 5.2 13.9 0.00 0.00 0.00 56 1016.0
20260506174022 84 165 4.3 9.6 0.00 0.00 0.00 53 1016.1
20260506173523 83 252 2.6 8.7 0.00 0.00 0.00 53 1016.2
20260506173041 83 238 2.6 8.7 0.00 0.00 0.00 53 1016.3
20260506172523 83 186 2.6 6.1 0.00 0.00 0.00 51 1016.2
20260506172023 83 355 2.6 7.0 0.00 0.00 0.00 54 1016.4
20260506171553 83 185 2.6 9.6 0.00 0.00 0.00 56 1016.3
20260506171023 82 223 3.5 9.6 0.00 0.00 0.00 56 1016.3
20260506170522 83 216 2.6 10.4 0.00 0.00 0.00 56 1016.4
20260506170043 82 198 3.5 10.4 0.00 0.00 0.00 55 1016.4
20260506165523 82 169 4.3 10.4 0.00 0.00 0.00 53 1016.6
20260506165023 82 247 3.5 7.8 0.00 0.00 0.00 58 1016.6
20260506164539 81 188 2.6 7.0 0.00 0.00 0.00 55 1016.7
20260506164022 80 199 1.7 9.6 0.00 0.00 0.00 56 1016.8
20260506163522 80 202 4.3 9.6 0.00 0.00 0.00 56 1016.8
20260506163043 80 178 2.6 9.6 0.00 0.00 0.00 56 1016.9
20260506162524 80 189 4.3 9.6 0.00 0.00 0.00 57 1017.0
20260506162025 79 194 1.7 9.6 0.00 0.00 0.00 57 1017.0
20260506161538 79 159 4.3 9.6 0.00 0.00 0.00 58 1017.0
20260506161024 78 173 2.6 7.8 0.00 0.00 0.00 62 1017.0
20260506160523 77 236 2.6 7.8 0.00 0.00 0.00 64 1017.2
20260506160039 76 200 3.5 7.8 0.00 0.00 0.00 64 1017.1
20260506155523 76 192 3.5 7.8 0.00 0.00 0.00 63 1017.2
20260506155023 77 223 3.5 7.8 0.00 0.00 0.00 62 1017.3
20260506154601 78 234 3.5 8.7 0.00 0.00 0.00 60 1017.3
20260506154025 78 235 3.5 10.4 0.00 0.00 0.00 60 1017.3
20260506153521 78 201 3.5 12.2 0.00 0.00 0.00 59 1017.3
20260506153041 78 217 5.2 12.2 0.00 0.00 0.00 60 1017.3
20260506152524 77 168 4.3 12.2 0.00 0.00 0.00 64 1017.2
20260506152025 77 202 4.3 12.2 0.00 0.00 0.00 62 1017.3
20260506151540 77 194 3.5 7.8 0.00 0.00 0.00 63 1017.3